CAPE
119 0 0 0 0 0 0 0 0 0 0 0 0 0 0 0 0 0 0 0 0 0 0 0 0 0 0 0 0 0 5 0 0 0 0 0 0 0 0 0 0 14 59
25 0 0 0 0 0 0 0 0 0 0 0 0 0 0 0 0 0 0 0 0 0 0 0 0 0 0 0 0 0 0 0 0 0 0 0 0 0 0 0 0 16 50
0 0 0 0 0 0 0 0 0 0 0 0 0 0 0 0 0 0 0 0 0 0 0 0 0 0 0 0 0 0 0 0 0 26 2 0 0 0 0 0 0 0 15
0 0 0 0 0 0 0 0 0 0 0 0 0 0 0 0 0 0 0 0 0 0 0 0 0 0 0 0 0 0 0 0 0 3 31 34 25 9 0 0 0 0 0
0 0 0 0 0 0 0 0 0 0 0 0 0 0 0 0 0 0 0 0 0 0 0 0 0 0 0 0 0 0 0 0 0 4 39 34 54 50 35 0 0 0 0
0 0 0 0 0 0 0 0 0 0 0 0 0 0 0 0 0 0 0 0 0 0 0 0 0 0 0 0 0 0 0 0 0 0 5 102 59 43 48 39 0 0 0
0 0 0 0 0 0 0 0 0 0 0 0 0 0 0 0 0 0 0 0 0 0 0 0 0 0 0 0 0 0 0 0 0 0 0 0 67 108 90 76 14 0 0
0 0 0 0 0 0 0 0 0 0 0 0 0 0 0 0 0 0 0 0 0 0 0 0 0 0 0 0 0 0 0 0 0 0 0 0 0 27 92 103 37 0 0
0 0 0 0 0 0 0 0 0 0 0 0 0 0 0 0 0 0 0 0 0 0 0 0 0 0 0 0 0 0 0 0 0 0 0 0 0 0 71 79 82 5 0
0 0 0 0 0 0 0 0 0 0 0 0 0 0 0 0 0 0 0 0 0 0 0 0 0 0 0 0 0 0 0 0 0 0 0 0 0 0 22 93 66 0 0
0 0 0 0 0 0 0 0 0 0 0 0 0 0 0 0 0 0 0 0 0 0 0 0 0 0 0 0 0 0 0 0 0 0 2 7 0 0 34 65 48 0 0
0 0 0 0 0 0 0 0 0 0 0 0 0 0 0 0 0 0 0 0 0 0 0 0 0 0 0 0 0 0 0 0 0 0 1 26 35 33 22 91 19 1 0
0 0 0 0 0 0 0 0 0 0 0 0 0 0 0 0 0 0 0 0 0 0 0 0 0 0 0 0 0 0 0 0 0 0 11 30 21 31 26 37 24 52 67
0 0 0 0 0 0 0 0 0 0 0 0 0 0 0 0 0 0 0 2 0 0 0 0 0 0 0 0 0 0 3 0 0 0 0 0 31 17 11 0 0 0 4
0 0 0 0 0 0 0 0 0 0 0 0 0 3 1 0 0 0 0 0 0 2 0 0 0 0 0 0 0 0 3 0 0 0 2 3 7 30 50 20 0 0 0
0 0 0 0 0 0 0 0 0 0 0 0 0 6 1 0 0 0 0 0 0 0 0 0 0 0 0 0 0 0 4 0 0 0 0 0 1 2 17 44 12 0 0
0 0 0 0 5 0 0 0 0 0 0 0 1 0 0 0 0 0 0 0 0 0 0 0 0 0 1 2 0 0 18 23 3 0 0 0 0 0 0 5 0 0 0
0 0 0 0 5 3 0 0 0 0 0 0 0 0 0 0 0 0 0 0 0 0 0 0 0 3 4 9 3 2 12 23 5 8 0 0 0 0 0 0 0 0 0
0 0 0 1 1 0 0 0 0 0 0 0 0 0 0 0 0 0 0 0 2 1 0 6 0 0 3 9 12 0 2 22 5 0 0 0 0 0 0 0 1 0 0
0 0 2 3 1 0 0 0 0 0 0 0 0 0 0 0 0 0 4 9 2 3 1 2 4 2 2 4 5 9 1 13 4 0 0 0 0 0 0 0 0 0 0
0 0 0 0 0 0 0 0 0 0 0 0 0 0 0 0 0 0 1 2 1 1 6 8 2 2 3 1 13 2 5 4 6 0 0 0 0 0 0 1 1 0 0
0 0 0 0 0 0 0 0 0 0 0 0 0 0 0 0 0 0 0 0 1 4 7 10 24 7 3 5 7 9 2 5 12 1 0 0 0 0 0 0 0 3 0
0 0 0 0 0 0 0 0 0 0 0 0 0 0 0 0 0 0 0 1 7 2 3 4 8 5 6 5 4 8 5 3 3 4 0 0 0 0 0 0 0 1 0
0 0 0 0 0 0 0 0 0 0 0 0 0 0 0 0 0 2 8 6 4 1 4 6 12 11 7 9 8 12 7 3 2 0 1 0 0 0 0 0 0 0 1
0 0 0 0 0 0 0 0 0 0 0 0 0 0 0 0 1 5 5 6 1 0 4 2 3 4 5 4 6 6 4 8 5 0 0 1 0 0 0 0 0 0 0
0 0 0 0 0 0 0 0 0 0 0 0 0 0 0 1 2 2 1 3 2 5 3 4 5 5 6 9 2 3 1 4 26 8 2 6 2 2 0 0 0 0 0
CIN
-82 -0 -0 -0 -0 -0 -0 -0 -0 -0 -0 -0 -0 -0 -0 -0 -0 -0 -0 -0 -0 -0 -0 -0 -0 -0 -0 -0 -0 -0 -14 -0 -0 -0 -0 -0 -0 -0 -0 -0 -0 -29 -10
-157 -0 -0 -0 -0 -0 -0 -0 -0 -0 -0 -0 -0 -0 -0 -0 -0 -0 -0 -0 -0 -0 -0 -0 -0 -0 -0 -0 -0 -0 -0 -0 -0 -0 -0 -0 -0 -0 -0 -0 -0 -55 -34
-0 -0 -0 -0 -0 -0 -0 -0 -0 -0 -0 -0 -0 -0 -0 -0 -0 -0 -0 -0 -0 -0 -0 -0 -0 -0 -0 -0 -0 -0 -0 -0 -0 -26 -5 -0 -0 -0 -0 -0 -0 -0 -63
-0 -0 -0 -0 -0 -0 -0 -0 -0 -0 -0 -0 -0 -0 -0 -0 -0 -0 -0 -0 -0 -0 -0 -0 -0 -0 -0 -0 -0 -0 -0 -0 -0 -8 -16 -21 -19 -14 -0 -0 -0 -0 -0
-0 -0 -0 -0 -0 -0 -0 -0 -0 -0 -0 -0 -0 -0 -0 -0 -0 -0 -0 -0 -0 -0 -0 -0 -0 -0 -0 -0 -0 -0 -0 -0 -0 -13 -19 -25 -16 -15 -20 -0 -0 -0 -0
-0 -0 -0 -0 -0 -0 -0 -0 -0 -0 -0 -0 -0 -0 -0 -0 -0 -0 -0 -0 -0 -0 -0 -0 -0 -0 -0 -0 -0 -0 -0 -0 -0 -0 -8 -1 -9 -14 -15 -17 -0 -0 -0
-0 -0 -0 -0 -0 -0 -0 -0 -0 -0 -0 -0 -0 -0 -0 -0 -0 -0 -0 -0 -0 -0 -0 -0 -0 -0 -0 -0 -0 -0 -0 -0 -0 -0 -0 -0 -8 -15 -7 -15 -19 -0 -0
-0 -0 -0 -0 -0 -0 -0 -0 -0 -0 -0 -0 -0 -0 -0 -0 -0 -0 -0 -0 -0 -0 -0 -0 -0 -0 -0 -0 -0 -0 -0 -0 -0 -0 -0 -0 -0 -32 -8 -4 -31 -0 -0
-0 -0 -0 -0 -0 -0 -0 -0 -0 -0 -0 -0 -0 -0 -0 -0 -0 -0 -0 -0 -0 -0 -0 -0 -0 -0 -0 -0 -0 -0 -0 -0 -0 -0 -0 -0 -0 -0 -5 -4 -4 -60 -0
-0 -0 -0 -0 -0 -0 -0 -0 -0 -0 -0 -0 -0 -0 -0 -0 -0 -0 -0 -0 -0 -0 -0 -0 -0 -0 -0 -0 -0 -0 -0 -0 -0 -0 -0 -0 -0 -0 -18 -1 -1 -0 -0
-0 -0 -0 -0 -0 -0 -0 -0 -0 -0 -0 -0 -0 -0 -0 -0 -0 -0 -0 -0 -0 -0 -0 -0 -0 -0 -0 -0 -0 -0 -0 -0 -0 -0 -0 -0 -0 -0 -20 -4 -0 -0 -0
-0 -0 -0 -0 -0 -0 -0 -0 -0 -0 -0 -0 -0 -0 -0 -0 -0 -0 -0 -0 -0 -0 -0 -0 -0 -0 -0 -0 -0 -0 -0 -0 -0 -0 -0 -0 -6 -14 -12 -5 -1 -0 -0
-0 -0 -0 -0 -0 -0 -0 -0 -0 -0 -0 -0 -0 -0 -0 -0 -0 -0 -0 -0 -0 -0 -0 -0 -0 -0 -0 -0 -0 -0 -0 -0 -0 -0 -9 -4 -3 -24 -8 -16 -10 -4 -8
-0 -0 -0 -0 -0 -0 -0 -0 -0 -0 -0 -0 -0 -0 -0 -0 -0 -0 -0 -1 -0 -0 -0 -0 -0 -0 -0 -0 -0 -0 -1 -0 -0 -0 -0 -0 -11 -11 -16 -29 -0 -3 -38
-0 -0 -0 -0 -0 -0 -0 -0 -0 -0 -0 -0 -2 -10 -6 -0 -0 -0 -0 -0 -0 -1 -0 -0 -0 -0 -0 -0 -0 -0 -1 -0 -0 -0 -10 -8 -25 -22 -9 -29 -0 -0 -0
-0 -0 -0 -0 -0 -0 -0 -0 -0 -0 -0 -0 -0 -12 -3 -0 -0 -0 -0 -0 -0 -0 -0 -0 -0 -0 -0 -0 -0 -0 -1 -0 -0 -0 -0 -0 -21 -32 -13 -6 -6 -5 -0
-0 -0 -6 -11 -16 -0 -0 -0 -0 -0 -0 -0 -4 -0 -0 -0 -0 -0 -0 -0 -0 -0 -0 -0 -0 -0 -1 -2 -0 -0 -1 -1 -1 -0 -0 -0 -0 -0 -0 -10 -5 -2 -0
-0 -0 -0 -0 -17 -16 -1 -0 -0 -0 -0 -0 -0 -0 -0 -0 -0 -0 -0 -0 -0 -4 -3 -0 -0 -4 -2 -1 -2 -1 -2 -1 -1 -0 -0 -0 -0 -0 -0 -0 -15 -0 -0
-0 -0 -0 -17 -16 -0 -0 -0 -0 -0 -0 -0 -0 -0 -0 -0 -0 -0 -0 -1 -4 -5 -6 -3 -0 -2 -4 -2 -1 -0 -2 -3 -1 -0 -0 -0 -0 -0 -0 -0 -9 -0 -0
-0 -0 -11 -8 -12 -0 -0 -0 -0 -0 -0 -0 -0 -0 -0 -0 -0 -1 -2 -2 -3 -2 -5 -5 -3 -6 -6 -4 -3 -2 -4 -3 -3 -0 -0 -0 -0 -0 -0 -0 -9 -0 -0
-5 -3 -7 -0 -0 -0 -0 -0 -0 -0 -0 -0 -0 -0 -0 -0 -0 -1 -2 -3 -3 -4 -4 -3 -5 -6 -5 -5 -1 -1 -2 -5 -3 -0 -0 -0 -0 -0 -0 -0 -0 -0 -0
-0 -0 -0 -0 -0 -0 -0 -0 -0 -0 -0 -0 -0 -0 -0 -0 -0 -0 -0 -1 -1 -2 -1 -2 -1 -3 -3 -6 -5 -1 -0 -1 -1 -8 -0 -0 -0 -0 -0 -0 -0 -0 -0
-0 -6 -0 -0 -0 -0 -0 -0 -0 -0 -0 -0 -0 -0 -0 -0 -0 -1 -2 -1 -1 -1 -1 -2 -1 -2 -3 -4 -4 -2 -2 -1 -1 -4 -0 -0 -0 -0 -0 -0 -0 -0 -0
-0 -16 -0 -0 -0 -0 -0 -0 -0 -0 -0 -0 -0 -0 -0 -0 -0 -1 -1 -2 -2 -3 -3 -2 -2 -2 -3 -3 -2 -1 -2 -3 -2 -1 -1 -0 -0 -0 -0 -0 -0 -0 -0
-0 -0 -0 -0 -0 -0 -0 -0 -0 -0 -0 -0 -0 -0 -0 -0 -1 -1 -2 -3 -3 -1 -2 -1 -0 -0 -0 -0 -1 -1 -1 -0 -0 -0 -2 -3 -0 -0 -0 -0 -0 -0 -0
-0 -0 -0 -0 -0 -0 -0 -0 -0 -0 -0 -0 -0 -0 -0 -1 -1 -2 -2 -2 -1 -3 -2 -2 -1 -1 -1 -1 -0 -1 -2 -1 -1 -1 -3 -1 -2 -1 -1 -0 -0 -0 -0
Wind_Speed
17 18 21 22 23 24 26 27 28 29 29 30 30 30 30 31 32 31 31 32 32 31 31 32 32 33 34 33 34 34 33 31 32 30 28 28 28 30 29 29 30 31 30
19 19 21 23 25 26 27 27 29 29 30 30 31 31 32 32 33 33 32 30 32 32 32 33 33 33 33 33 33 33 34 35 32 32 31 31 30 31 30 29 29 30 31
19 21 23 24 27 27 27 28 29 29 31 32 33 33 33 33 34 32 31 30 31 32 33 34 35 35 35 35 35 34 34 35 36 34 32 32 32 31 30 30 30 30 28
21 22 24 26 26 26 27 29 32 32 33 34 35 35 35 34 33 30 30 30 31 32 33 36 37 37 38 38 38 37 36 35 36 38 36 30 32 33 32 30 31 32 29
22 24 25 25 25 28 30 31 32 33 34 36 37 36 38 37 33 31 32 33 33 34 35 37 39 39 40 40 40 40 39 38 37 37 38 38 33 30 31 30 31 31 31
24 24 25 26 28 30 31 31 32 33 34 37 39 37 38 35 31 31 33 33 35 37 38 40 41 41 43 43 42 42 42 41 40 38 38 38 37 34 33 31 32 31 30
25 26 27 29 30 32 32 32 32 35 36 38 39 40 38 31 30 31 33 34 37 37 39 41 42 44 44 45 45 45 45 44 43 41 40 39 39 36 33 32 31 31 32
27 29 30 32 32 32 32 33 34 35 34 35 39 41 43 38 34 33 34 36 39 40 42 44 44 45 45 45 46 47 46 45 46 45 43 42 40 41 38 32 31 31 32
29 30 30 31 32 32 32 31 32 34 38 35 35 38 44 45 45 35 38 37 41 42 43 43 43 44 45 45 46 46 46 47 47 47 46 44 43 42 42 38 33 31 31
32 32 33 33 33 32 31 31 32 34 36 40 36 33 34 40 46 52 41 43 41 43 42 40 42 42 43 44 46 48 48 49 49 47 47 46 45 44 43 41 38 35 33
36 35 34 35 33 31 30 31 32 34 34 37 38 38 37 37 36 40 50 45 42 39 39 41 39 40 41 43 44 45 49 50 50 48 46 45 45 44 43 40 39 38 37
40 37 35 33 30 29 30 31 32 33 34 34 34 35 35 36 37 37 42 41 42 40 40 40 40 40 41 42 42 44 45 47 48 47 45 43 41 40 37 36 37 36 36
41 40 34 31 29 29 30 31 32 32 32 33 32 32 31 31 31 33 35 38 40 42 41 39 42 42 42 41 39 41 42 42 42 42 41 41 39 36 34 33 35 35 35
41 39 32 27 27 29 30 32 31 30 29 30 30 29 29 29 28 29 31 35 42 44 46 47 43 42 41 41 42 40 37 37 38 37 38 38 38 38 34 33 32 33 34
40 35 27 25 28 28 32 29 30 31 29 28 28 27 28 27 27 26 28 29 35 48 55 50 49 43 45 43 41 39 37 34 34 33 32 31 32 36 35 35 33 31 32
38 32 26 26 27 33 30 29 28 27 27 26 26 26 26 25 25 26 28 31 32 36 45 42 46 45 43 41 40 40 37 34 32 31 31 28 29 31 34 34 36 37 34
37 31 26 26 31 31 29 27 25 24 24 25 24 24 24 24 26 29 31 31 32 32 36 38 38 39 40 39 38 37 33 31 30 29 29 27 28 29 30 32 33 34 37
36 32 29 30 32 31 26 22 21 21 24 25 25 24 26 28 29 31 33 33 33 32 33 35 38 37 39 39 38 36 28 30 30 32 28 26 27 27 29 30 31 31 32
36 32 32 34 32 27 22 20 21 23 26 27 26 25 28 30 32 33 33 34 32 30 30 31 36 35 34 35 36 33 34 30 30 29 31 26 24 25 27 28 27 28 30
37 34 32 32 27 22 19 21 22 24 28 28 27 28 29 31 33 34 33 31 30 29 30 30 29 32 31 32 33 32 33 28 30 29 29 27 26 24 24 25 26 25 29
35 34 32 28 24 20 20 22 23 27 30 32 31 31 30 32 33 31 31 29 29 29 28 27 27 27 28 29 29 28 31 31 30 29 30 29 27 25 23 23 23 24 24
34 33 30 26 23 21 22 24 26 30 31 33 33 32 32 33 31 31 27 26 25 25 25 25 24 21 23 25 28 27 28 29 31 23 27 28 27 27 24 22 21 20 24
32 29 26 23 21 20 21 25 28 29 30 32 32 32 32 32 31 29 27 26 24 23 20 20 17 17 21 26 29 30 29 29 30 30 29 32 28 30 28 25 21 18 18
30 26 22 20 19 20 23 26 28 29 30 30 31 30 32 31 29 28 30 28 26 25 22 17 13 10 13 22 26 30 33 32 32 32 31 34 32 33 30 29 27 24 20
28 24 19 18 19 21 24 27 29 28 29 30 30 30 30 29 28 29 31 29 26 23 20 17 11 6 4 3 18 32 31 29 33 35 33 34 35 36 34 33 32 30 28
25 20 18 18 19 21 24 27 28 27 29 30 29 29 28 28 27 31 31 27 22 23 20 16 11 6 1 6 16 27 30 31 28 28 28 30 30 29 30 29 32 31 30
Wind_Direction
352 352 348 350 349 351 350 347 347 345 343 343 343 343 343 341 339 338 337 335 334 333 330 327 323 321 319 315 309 306 306 308 304 306 308 303 297 290 288 283 277 271 268
350 350 348 347 347 348 346 344 341 341 340 339 338 338 336 335 334 332 331 334 335 333 330 328 327 325 321 319 316 310 303 302 304 304 302 299 296 291 287 285 281 278 272
350 347 342 345 341 343 343 341 339 338 335 335 332 332 333 334 332 333 332 332 331 331 328 326 324 322 320 317 315 313 307 302 297 299 300 297 293 291 288 284 283 279 279
350 342 345 341 343 346 343 339 333 332 332 332 331 330 329 330 330 330 331 330 328 326 324 324 321 319 317 314 311 309 308 304 299 292 292 295 293 288 286 287 280 276 277
349 345 345 346 345 342 338 336 334 334 331 330 328 327 326 324 324 323 323 323 325 323 321 319 317 315 314 312 309 306 303 302 300 295 289 287 289 288 286 284 281 278 275
349 347 346 344 342 338 338 337 335 333 331 329 326 325 325 324 322 322 321 321 321 319 318 316 313 311 309 307 307 304 301 298 296 295 290 285 284 282 281 281 278 278 277
349 346 343 340 339 337 336 336 334 331 330 331 327 324 323 322 321 321 320 318 319 318 316 315 312 310 306 304 301 299 297 294 292 291 289 285 280 280 274 273 276 277 276
347 341 338 336 336 335 335 334 333 331 331 333 328 323 319 318 316 317 317 316 316 315 313 312 310 308 305 302 300 297 295 292 289 287 285 283 281 274 273 269 272 274 274
347 341 340 338 336 335 333 334 334 333 330 333 333 327 320 315 316 316 315 315 315 314 313 312 310 308 305 301 298 295 293 291 288 285 282 280 278 276 271 266 266 269 271
342 339 336 337 336 335 334 335 336 335 334 329 332 331 327 320 315 310 314 313 314 314 313 313 312 311 309 305 298 294 291 289 287 284 280 278 276 274 269 265 262 265 268
336 336 336 335 335 336 336 336 336 337 336 332 328 326 324 322 319 315 311 314 314 315 314 312 311 311 311 308 304 299 293 287 284 282 279 277 275 272 269 262 261 261 263
334 335 334 335 336 337 337 337 337 335 333 332 330 329 327 325 322 320 317 318 315 316 315 313 312 311 311 307 306 304 299 291 286 281 277 275 275 272 268 261 258 259 262
334 334 334 335 336 338 337 336 335 334 335 333 333 332 332 328 326 324 323 320 318 316 315 314 312 310 310 309 307 308 303 299 291 284 278 273 271 271 268 262 260 259 260
335 335 334 336 338 338 338 336 334 336 337 334 334 333 333 332 332 330 327 324 319 317 312 310 312 310 308 307 303 303 303 303 297 288 283 277 270 268 266 266 261 261 259
338 338 339 339 338 339 336 336 335 335 337 337 336 337 336 336 336 335 333 331 326 317 301 309 307 310 305 304 300 298 299 300 298 292 288 284 276 268 266 262 262 260 260
342 341 339 338 340 338 338 338 338 339 339 340 340 340 341 340 339 337 334 331 327 322 316 319 313 311 309 305 299 294 292 293 294 294 289 287 282 276 269 263 261 259 258
344 341 338 337 337 338 337 337 340 342 343 344 345 343 342 343 339 335 333 331 328 325 320 321 320 318 313 308 302 294 290 287 287 292 291 286 286 280 276 266 263 262 259
344 342 340 337 335 333 334 338 341 345 345 344 344 343 341 339 337 335 334 331 328 326 324 321 321 318 315 310 301 293 290 288 280 280 289 288 285 284 278 272 264 262 261
344 341 337 334 335 337 339 342 341 340 342 340 343 342 339 337 335 335 334 331 331 330 328 325 322 321 317 313 305 292 285 285 280 280 276 283 288 286 283 277 268 261 257
344 342 341 338 338 341 346 345 343 341 339 339 340 340 339 338 336 336 335 334 334 332 330 326 326 324 319 314 309 292 282 283 279 277 276 276 279 285 286 284 270 264 255
348 348 345 348 351 351 350 348 345 340 338 336 338 340 341 340 339 339 338 337 335 334 334 333 330 327 324 318 307 300 284 278 278 275 273 270 271 276 281 283 280 264 262
346 348 349 353 356 356 351 347 344 340 339 338 340 342 342 343 344 344 344 343 343 340 336 337 335 332 326 320 306 297 290 280 274 278 270 267 268 266 273 277 282 278 256
345 347 351 355 355 356 354 349 346 345 344 343 343 345 346 347 348 349 349 346 347 346 340 338 331 333 331 320 305 294 288 279 273 271 271 263 265 261 263 266 271 277 262
346 348 352 358 2 360 355 352 349 347 347 347 348 350 349 350 352 352 348 351 353 354 355 350 340 334 333 325 312 295 281 275 271 268 267 260 261 258 260 260 259 262 261
351 354 359 3 2 359 356 352 351 351 350 351 353 353 353 354 355 354 350 353 357 0 4 1 355 339 294 288 246 265 269 271 265 262 261 259 259 256 257 256 255 255 255
351 356 1 2 0 358 356 355 354 354 353 355 357 358 360 359 359 353 352 359 5 7 7 11 19 28 144 201 216 230 231 243 261 259 257 255 258 257 256 257 255 254 254